Weather in Nysh

Russia / Sakhalin District     51°32′07″N   142°45′19″E
temp.,
°C
wind,
m/s
gust,
m/s
humid.,
%
clouds,
%
prec.,
mm/h
press.,
hPa
HPBL,
m
25 january, tue
tue2523:00−19sw259697 0.0 1018110
02:00−21sw249891 0.0 101957
05:00−20sw249881 0.0 101979
08:00−25sw2210012 0.0 102031
11:00−19wsw24965 0.0 102192
14:00−13wsw34835 0.0 1020462
17:00−14w35885 0.0 1020282
20:00−24sw221006 0.0 102118
26 january, wed
wed2623:00−24sw239810 0.0 102134
02:00−24sw23955 0.0 102140
05:00−24sw249533 0.0 102146
08:00−23sw239466 0.0 102143
11:00−18sw249022 0.0 102192
14:00−12w248246 0.0 1020482
17:00−13wnw249094 0.0 1020208
20:00−21wsw1110098 0.0 102110
27 january, thu
thu2723:00−24wsw1110061 0.0 10229
02:00−27sw1110042 0.0 10229
05:00−28sw111006 0.0 10229
08:00−28sw2110012 0.0 102211
11:00−21wsw119710 0.0 102157
14:00−15wnw248369 0.0 1019531
17:00−15wnw24855 0.0 1018256
20:00−23wsw2299100 0.0 101817
28 january, fri
fri2823:00−26sw2210010 0.0 101816
02:00−28sw2210073 0.0 101717
05:00−28sw2210095 0.0 101628
08:00−28sw2210078 0.0 101528
11:00−22sw23977 0.0 101393
14:00−16w357453 0.0 1011743
17:00−16wnw248210 0.0 1010222
20:00−27sw229827 0.0 101110
29 january, sat
sat2923:00−27sw22986 0.0 101018
02:00−28sw22976 0.0 100922
05:00−26sw249922 0.0 100851
08:00−25sw379919 0.0 1006103
11:00−21sw4119788 0.0 1005364
14:00−17wsw61086100 0.0 1003850
17:00−17sw6118999 0.1 1002878
20:00−18sw41189100 0.1 1002581